Date String (YYYY-MM-DD hh:mm:ss) UTC,Instrument flags,absolute air pressure of the measurement (hPa),sample flow rate (lpm),inlet stack bypass flow (lpm),air temperature of the measurement (°C),ambient temperature measured by the external sensor (°C),aerosol sample conditioner tube jacket temperature (°C),OPC LED temperature (°C),internal box temperature (°C),relative humidity of the measurement (%),span deviation,mass concentration of particles derived from Lorenz-Mie calculation of OPC scattering (μg/m³),mass concentration of particles derived from Lorenz-Mie calculation of OPC scattering (μg/m³),mass concentration of particles derived from Lorenz-Mie calculation of OPC scattering (μg/m³)
DateTimeUTC,F1_M11,P_M11,Q1_M11,Q2_M11,T1_M11,T2_M11,T3_M11,T4_M11,T5_M11,U1_M11,ZSPAN_M11,X2_M11,X0_M11,X1_M11
2023-11-27 21:00:00,SystemResetWarning,0832.8,5.00,000.00,022.3,021.5,000.0,030.4,023.6,9.5,0000.0,0003.22,0006.72,0002.60
2023-11-27 21:01:00,SystemResetWarning,0832.8,5.00,000.00,022.3,021.5,000.0,030.4,023.6,9.6,0000.0,0003.21,0005.80,0002.62
2023-11-27 21:02:00,SystemResetWarning,0832.8,5.00,000.00,022.3,021.5,000.0,030.4,023.6,9.4,0000.0,0003.20,0005.77,0002.63
2023-11-27 21:03:00,SystemResetWarning,0832.8,5.00,000.00,022.3,021.5,000.0,030.5,023.6,9.3,0000.0,0003.21,0005.94,0002.65
2023-11-27 21:04:00,SystemResetWarning,0832.8,5.00,000.00,022.3,021.5,000.0,030.5,023.7,9.1,0000.0,0003.22,0005.16,0002.65
2023-11-27 21:05:00,SystemResetWarning,0832.8,5.00,000.00,022.3,021.5,000.0,030.5,023.7,9.0,0000.0,0003.23,0005.81,0002.65
2023-11-27 21:06:00,SystemResetWarning,0832.8,5.00,000.00,022.3,021.6,000.0,030.5,023.7,9.1,0000.0,0003.23,0006.29,0002.66
2023-11-27 21:07:00,SystemResetWarning,0832.8,5.00,000.00,022.3,021.6,000.0,030.5,023.7,8.7,0000.0,0003.20,0006.06,0002.66
2023-11-27 21:08:00,SystemResetWarning,0832.8,5.01,000.00,022.3,021.6,000.0,030.5,023.7,8.9,0000.0,0003.22,0006.14,0002.66
2023-11-27 21:09:00,SystemResetWarning,0832.7,5.00,000.00,022.4,021.6,000.0,030.5,023.7,9.0,0000.0,0003.23,0006.46,0002.63
2023-11-27 21:10:00,SystemResetWarning,0832.7,5.00,000.00,022.4,021.6,000.0,030.5,023.7,8.9,0000.0,0003.22,0006.88,0002.63
2023-11-27 21:11:00,SystemResetWarning,0832.7,5.00,000.00,022.4,021.6,000.0,030.5,023.7,9.1,0000.0,0003.22,0006.89,0002.64
2023-11-27 21:12:00,SystemResetWarning,0832.7,5.00,000.00,022.4,021.6,000.0,030.5,023.7,8.9,0000.0,0003.25,0007.11,0002.65
2023-11-27 21:13:00,SystemResetWarning,0832.8,5.00,000.00,022.4,021.6,000.0,030.5,023.8,8.7,0000.0,0003.25,0007.31,0002.63
2023-11-27 21:14:00,SystemResetWarning,0832.7,5.00,000.00,022.4,021.6,000.0,030.5,023.7,9.0,0000.0,0003.27,0007.60,0002.63
2023-11-27 21:15:00,SystemResetWarning,0832.7,5.00,000.00,022.4,021.6,000.0,030.6,023.7,9.0,0000.0,0003.28,0007.65,0002.64
2023-11-27 21:16:00,SystemResetWarning,0832.7,5.00,000.00,022.4,021.6,000.0,030.6,023.7,8.9,0000.0,0003.28,0007.51,0002.65
2023-11-27 21:17:00,SystemResetWarning,0832.7,5.01,000.00,022.4,021.6,000.0,030.6,023.8,9.1,0000.0,0003.26,0006.89,0002.64
2023-11-27 21:18:00,SystemResetWarning,0832.7,5.00,000.00,022.4,021.6,000.0,030.6,023.8,9.4,0000.0,0003.28,0006.77,0002.66
2023-11-27 21:19:00,SystemResetWarning,0832.7,4.99,000.00,022.4,021.7,000.0,030.6,023.8,9.3,0000.0,0003.28,0006.68,0002.68
2023-11-27 21:20:00,SystemResetWarning,0832.7,5.00,000.00,022.5,021.7,000.0,030.6,023.8,8.9,0000.0,0003.30,0006.69,0002.70
2023-11-27 21:21:00,SystemResetWarning,0832.7,4.99,000.00,022.5,021.7,000.0,030.6,023.8,8.8,0000.0,0003.30,0007.28,0002.73
2023-11-27 21:22:00,SystemResetWarning,0832.7,4.99,000.00,022.5,021.7,000.0,030.6,023.8,9.2,0000.0,0003.32,0007.39,0002.73
2023-11-27 21:23:00,SystemResetWarning,0832.7,5.00,000.00,022.5,021.7,000.0,030.6,023.8,9.3,0000.0,0003.35,0008.07,0002.75
2023-11-27 21:24:00,SystemResetWarning,0832.7,5.00,000.00,022.5,021.7,000.0,030.7,023.8,9.7,0000.0,0003.36,0008.05,0002.77
2023-11-27 21:25:00,SystemResetWarning,0832.7,5.01,000.00,022.5,021.7,000.0,030.7,023.8,9.4,0000.0,0003.40,0008.22,0002.79
2023-11-27 21:26:00,SystemResetWarning,0832.7,5.00,000.00,022.5,021.7,000.0,030.7,023.9,9.0,0000.0,0003.41,0008.52,0002.81
2023-11-27 21:27:00,SystemResetWarning,0832.8,5.00,000.00,022.5,021.7,000.0,030.7,023.9,8.9,0000.0,0003.43,0008.61,0002.83
2023-11-27 21:28:00,SystemResetWarning,0832.8,5.01,000.00,022.5,021.7,000.0,030.7,023.9,8.6,0000.0,0003.48,0008.84,0002.85
2023-11-27 21:29:00,SystemResetWarning,0832.7,5.00,000.00,022.6,021.7,000.0,030.7,023.9,8.6,0000.0,0003.50,0008.94,0002.86
2023-11-27 21:30:00,SystemResetWarning,0832.8,4.99,000.00,022.6,021.7,000.0,030.7,023.9,8.6,0000.0,0003.53,0009.01,0002.86
2023-11-27 21:31:00,SystemResetWarning,0832.7,4.99,000.00,022.6,021.7,000.0,030.7,023.9,8.7,0000.0,0003.53,0009.04,0002.86
2023-11-27 21:32:00,SystemResetWarning,0832.7,5.00,000.00,022.6,021.8,000.0,030.7,023.9,8.7,0000.0,0003.57,0008.84,0002.88
2023-11-27 21:33:00,SystemResetWarning,0832.7,5.01,000.00,022.6,021.8,000.0,030.7,023.9,8.7,0000.0,0003.59,0009.33,0002.90
2023-11-27 21:34:00,SystemResetWarning,0832.7,5.00,000.00,022.6,021.8,000.0,030.7,023.9,8.7,0000.0,0003.56,0008.74,0002.92
2023-11-27 21:35:00,SystemResetWarning,0832.7,5.00,000.00,022.6,021.8,000.0,030.7,024.0,8.7,0000.0,0003.56,0008.80,0002.94
2023-11-27 21:36:00,SystemResetWarning,0832.6,5.00,000.00,022.6,021.8,000.0,030.8,023.9,8.8,0000.0,0003.54,0008.59,0002.95
2023-11-27 21:37:00,SystemResetWarning,0832.7,5.00,000.00,022.6,021.8,000.0,030.8,023.9,8.9,0000.0,0003.57,0008.33,0002.97
2023-11-27 21:38:00,SystemResetWarning,0832.7,5.00,000.00,022.6,021.8,000.0,030.8,023.9,9.2,0000.0,0003.63,0008.42,0003.00
2023-11-27 21:39:00,SystemResetWarning,0832.7,4.99,000.00,022.6,021.8,000.0,030.8,024.0,8.9,0000.0,0003.62,0008.25,0003.03
2023-11-27 21:40:00,SystemResetWarning,0832.7,5.00,000.00,022.6,021.8,000.0,030.8,024.0,9.0,0000.0,0003.63,0008.32,0003.06
2023-11-27 21:41:00,SystemResetWarning,0832.6,5.01,000.00,022.7,021.8,000.0,030.8,024.0,9.1,0000.0,0003.65,0008.90,0003.10
2023-11-27 21:42:00,SystemResetWarning,0832.7,5.00,000.00,022.7,021.9,000.0,030.8,024.0,9.0,0000.0,0003.67,0008.87,0003.12
2023-11-27 21:43:00,SystemResetWarning,0832.7,5.00,000.00,022.7,021.9,000.0,030.8,024.0,9.2,0000.0,0003.67,0008.78,0003.13
2023-11-27 21:44:00,SystemResetWarning,0832.7,5.00,000.00,022.7,021.9,000.0,030.8,024.1,9.3,0000.0,0003.65,0008.21,0003.13
2023-11-27 21:45:00,SystemResetWarning,0832.7,5.00,000.00,022.7,021.9,000.0,030.8,024.1,9.3,0000.0,0003.66,0008.00,0003.14
2023-11-27 21:46:00,SystemResetWarning,0832.7,5.00,000.00,022.7,021.9,000.0,030.9,024.1,9.0,0000.0,0003.68,0008.01,0003.14
2023-11-27 21:47:00,SystemResetWarning,0832.7,5.00,000.00,022.7,021.9,000.0,030.9,024.1,9.2,0000.0,0003.71,0007.94,0003.16
2023-11-27 21:48:00,SystemResetWarning,0832.7,5.00,000.00,022.7,021.9,000.0,030.9,024.1,9.2,0000.0,0003.71,0008.10,0003.16
2023-11-27 21:49:00,SystemResetWarning,0832.7,5.00,000.00,022.8,021.9,000.0,030.9,024.1,9.2,0000.0,0003.69,0008.61,0003.16
2023-11-27 21:50:00,SystemResetWarning,0832.7,5.01,000.00,022.8,022.0,000.0,030.9,024.1,9.2,0000.0,0003.72,0008.76,0003.17
2023-11-27 21:51:00,SystemResetWarning,0832.7,5.00,000.00,022.8,022.0,000.0,030.9,024.2,9.4,0000.0,0003.74,0009.69,0003.17
2023-11-27 21:52:00,SystemResetWarning,0832.7,5.00,000.00,022.8,022.0,000.0,030.9,024.2,9.1,0000.0,0003.74,0009.96,0003.17
2023-11-27 21:53:00,SystemResetWarning,0832.7,5.00,000.00,022.8,022.0,000.0,030.9,024.2,8.9,0000.0,0003.77,0010.01,0003.17
2023-11-27 21:54:00,SystemResetWarning,0832.7,5.00,000.00,022.8,022.0,000.0,030.9,024.2,8.9,0000.0,0003.81,0010.06,0003.18
2023-11-27 21:55:00,SystemResetWarning,0832.7,4.99,000.00,022.8,022.0,000.0,031.0,024.2,8.9,0000.0,0003.84,0010.03,0003.19
2023-11-27 21:56:00,SystemResetWarning,0832.6,5.00,000.00,022.9,022.0,000.0,031.0,024.2,8.7,0000.0,0003.85,0010.02,0003.20
2023-11-27 21:57:00,SystemResetWarning,0832.7,4.99,000.00,022.9,022.0,000.0,031.0,024.2,8.9,0000.0,0003.84,0009.94,0003.20
2023-11-27 21:58:00,SystemResetWarning,0832.7,5.00,000.00,022.9,022.0,000.0,031.0,024.2,9.1,0000.0,0003.82,0009.84,0003.19
2023-11-27 21:59:00,SystemResetWarning,0832.6,5.00,000.00,022.9,022.1,000.0,031.0,024.2,9.0,0000.0,0003.85,0009.70,0003.20
